| time (UTC) | temp C | wind direction | speed KPH | gust KPH | rain 1hr cm | rain 24hr cm | rain mn cm | humidity % | barometer mb |
| 20260502225005 | 17 | 213 | 0.0 | 11.3 | 0.00 | 0.00 | 0.00 | 32 | 1012.9 |
| 20260502224512 | 18 | 208 | 1.6 | 11.3 | 0.00 | 0.00 | 0.00 | 31 | 1012.9 |
| 20260502224007 | 18 | 337 | 1.6 | 11.3 | 0.00 | 0.00 | 0.00 | 31 | 1013.0 |
| 20260502223511 | 18 | 279 | 1.6 | 11.3 | 0.00 | 0.00 | 0.00 | 30 | 1013.1 |
| 20260502223027 | 18 | 223 | 3.2 | 9.7 | 0.00 | 0.00 | 0.00 | 31 | 1013.1 |
| 20260502222503 | 18 | 175 | 1.6 | 12.9 | 0.00 | 0.00 | 0.00 | 30 | 1013.1 |
| 20260502222009 | 18 | 113 | 1.6 | 14.5 | 0.00 | 0.00 | 0.00 | 30 | 1013.1 |
| 20260502221511 | 18 | 42 | 1.6 | 14.5 | 0.00 | 0.00 | 0.00 | 31 | 1013.1 |
| 20260502221003 | 18 | 200 | 1.6 | 11.3 | 0.00 | 0.00 | 0.00 | 31 | 1013.2 |
| 20260502220503 | 18 | 118 | 3.2 | 16.1 | 0.00 | 0.00 | 0.00 | 30 | 1013.2 |
| 20260502220006 | 18 | 260 | 4.8 | 16.1 | 0.00 | 0.00 | 0.00 | 30 | 1013.2 |
| 20260502215503 | 18 | 261 | 4.8 | 12.9 | 0.00 | 0.00 | 0.00 | 29 | 1013.2 |
| 20260502215003 | 18 | 267 | 1.6 | 14.5 | 0.00 | 0.00 | 0.00 | 31 | 1013.4 |
| 20260502214502 | 18 | 259 | 3.2 | 14.5 | 0.00 | 0.00 | 0.00 | 30 | 1013.5 |
| 20260502214002 | 18 | 206 | 1.6 | 12.9 | 0.00 | 0.00 | 0.00 | 30 | 1013.6 |
| 20260502213504 | 18 | 57 | 1.6 | 12.9 | 0.00 | 0.00 | 0.00 | 31 | 1013.6 |
| 20260502213006 | 18 | 233 | 1.6 | 9.7 | 0.00 | 0.00 | 0.00 | 30 | 1013.6 |
| 20260502212503 | 18 | 324 | 3.2 | 14.5 | 0.00 | 0.00 | 0.00 | 28 | 1013.8 |
| 20260502212004 | 19 | 327 | 4.8 | 14.5 | 0.00 | 0.00 | 0.00 | 30 | 1013.9 |
| 20260502211523 | 18 | 352 | 1.6 | 9.7 | 0.00 | 0.00 | 0.00 | 30 | 1013.9 |
| 20260502211003 | 18 | 181 | 1.6 | 8.0 | 0.00 | 0.00 | 0.00 | 31 | 1013.9 |
| 20260502210504 | 18 | 211 | 1.6 | 11.3 | 0.00 | 0.00 | 0.00 | 31 | 1014.0 |
| 20260502210009 | 18 | 284 | 1.6 | 14.5 | 0.00 | 0.00 | 0.00 | 28 | 1014.2 |
| 20260502205505 | 19 | 200 | 4.8 | 14.5 | 0.00 | 0.00 | 0.00 | 28 | 1014.2 |
| 20260502205003 | 18 | 186 | 1.6 | 14.5 | 0.00 | 0.00 | 0.00 | 27 | 1014.3 |
| 20260502204502 | 19 | 34 | 1.6 | 14.5 | 0.00 | 0.00 | 0.00 | 30 | 1014.4 |
| 20260502204004 | 18 | 196 | 3.2 | 9.7 | 0.00 | 0.00 | 0.00 | 28 | 1014.5 |
| 20260502203504 | 18 | 82 | 1.6 | 9.7 | 0.00 | 0.00 | 0.00 | 29 | 1014.6 |
| 20260502203006 | 18 | 18 | 3.2 | 9.7 | 0.00 | 0.00 | 0.00 | 30 | 1014.7 |
| 20260502202506 | 17 | 331 | 1.6 | 9.7 | 0.00 | 0.00 | 0.00 | 33 | 1014.8 |
| 20260502202003 | 18 | 41 | 1.6 | 14.5 | 0.00 | 0.00 | 0.00 | 30 | 1014.8 |
| 20260502201503 | 18 | 131 | 4.8 | 14.5 | 0.00 | 0.00 | 0.00 | 28 | 1015.0 |
| 20260502201003 | 18 | 270 | 4.8 | 14.5 | 0.00 | 0.00 | 0.00 | 28 | 1015.0 |
| 20260502200503 | 18 | 221 | 1.6 | 8.0 | 0.00 | 0.00 | 0.00 | 28 | 1015.1 |
| 20260502200014 | 18 | 335 | 1.6 | 8.0 | 0.00 | 0.00 | 0.00 | 31 | 1015.2 |
| 20260502195503 | 17 | 173 | 1.6 | 8.0 | 0.00 | 0.00 | 0.00 | 27 | 1015.3 |
| 20260502195003 | 18 | 222 | 1.6 | 8.0 | 0.00 | 0.00 | 0.00 | 28 | 1015.4 |
| 20260502194517 | 18 | 41 | 0.0 | 14.5 | 0.00 | 0.00 | 0.00 | 33 | 1015.3 |
| 20260502194005 | 18 | 294 | 4.8 | 14.5 | 0.00 | 0.00 | 0.00 | 29 | 1015.4 |
| 20260502193504 | 17 | 269 | 3.2 | 14.5 | 0.00 | 0.00 | 0.00 | 35 | 1015.5 |
| 20260502193003 | 17 | 237 | 4.8 | 14.5 | 0.00 | 0.00 | 0.00 | 28 | 1015.6 |
| 20260502192504 | 17 | 272 | 4.8 | 12.9 | 0.00 | 0.00 | 0.00 | 28 | 1015.7 |
| 20260502192003 | 17 | 244 | 1.6 | 11.3 | 0.00 | 0.00 | 0.00 | 30 | 1015.8 |
| 20260502191514 | 17 | 150 | 1.6 | 11.3 | 0.00 | 0.00 | 0.00 | 30 | 1015.8 |
| 20260502191006 | 17 | 299 | 1.6 | 12.9 | 0.00 | 0.00 | 0.00 | 33 | 1015.9 |
| 20260502190503 | 16 | 222 | 1.6 | 16.1 | 0.00 | 0.00 | 0.00 | 30 | 1016.1 |
| 20260502190014 | 16 | 262 | 1.6 | 16.1 | 0.00 | 0.00 | 0.00 | 31 | 1016.2 |
| 20260502185506 | 16 | 164 | 4.8 | 11.3 | 0.00 | 0.00 | 0.00 | 29 | 1016.2 |
| 20260502185008 | 16 | 227 | 3.2 | 8.0 | 0.00 | 0.00 | 0.00 | 29 | 1016.3 |
| 20260502184505 | 16 | 220 | 1.6 | 11.3 | 0.00 | 0.00 | 0.00 | 28 | 1016.4 |
| 20260502184004 | 17 | 88 | 3.2 | 11.3 | 0.00 | 0.00 | 0.00 | 31 | 1016.5 |
| 20260502183509 | 16 | 216 | 1.6 | 14.5 | 0.00 | 0.00 | 0.00 | 31 | 1016.6 |
| 20260502183022 | 16 | 125 | 1.6 | 16.1 | 0.00 | 0.00 | 0.00 | 31 | 1016.8 |
| 20260502182502 | 16 | 228 | 1.6 | 16.1 | 0.00 | 0.00 | 0.00 | 31 | 1016.8 |
| 20260502182008 | 16 | 157 | 6.4 | 16.1 | 0.00 | 0.00 | 0.00 | 29 | 1016.9 |
| 20260502181506 | 16 | 270 | 3.2 | 16.1 | 0.00 | 0.00 | 0.00 | 34 | 1016.9 |
| 20260502181005 | 16 | 213 | 6.4 | 16.1 | 0.00 | 0.00 | 0.00 | 31 | 1016.8 |
| 20260502180503 | 16 | 162 | 3.2 | 14.5 | 0.00 | 0.00 | 0.00 | 32 | 1017.0 |
| 20260502170510 | 15 | 209 | 1.6 | 6.4 | 0.00 | 0.00 | 0.00 | 37 | 1018.0 |
| 20260502164006 | 15 | 248 | 1.6 | 12.9 | 0.00 | 0.00 | 0.00 | 34 | 1018.2 |
| 20260502163504 | 15 | 109 | 3.2 | 12.9 | 0.00 | 0.00 | 0.00 | 34 | 1018.2 |
| 20260502163018 | 15 | 205 | 1.6 | 12.9 | 0.00 | 0.00 | 0.00 | 34 | 1018.2 |
| 20260502162506 | 15 | 47 | 3.2 | 12.9 | 0.00 | 0.00 | 0.00 | 35 | 1018.3 |
| 20260502162003 | 15 | 163 | 3.2 | 8.0 | 0.00 | 0.00 | 0.00 | 34 | 1018.3 |
| 20260502161516 | 15 | 263 | 1.6 | 9.7 | 0.00 | 0.00 | 0.00 | 36 | 1018.3 |
| 20260502161008 | 15 | 304 | 1.6 | 16.1 | 0.00 | 0.00 | 0.00 | 35 | 1018.3 |
| 20260502160502 | 15 | 40 | 1.6 | 16.1 | 0.00 | 0.00 | 0.00 | 37 | 1018.4 |
| 20260502152006 | 14 | 243 | 1.6 | 19.3 | 0.00 | 0.00 | 0.00 | 37 | 1018.6 |
| 20260502151518 | 13 | 229 | 6.4 | 19.3 | 0.00 | 0.00 | 0.00 | 36 | 1018.6 |
| 20260502151005 | 13 | 270 | 3.2 | 8.0 | 0.00 | 0.00 | 0.00 | 41 | 1018.7 |
| 20260502150508 | 13 | 101 | 1.6 | 8.0 | 0.00 | 0.00 | 0.00 | 39 | 1018.7 |
| 20260502130507 | 0 | 190 | 1.6 | 8.0 | 0.00 | 0.00 | 0.00 | 84 | 1018.9 |
| 20260502123503 | -1 | 17 | 0.0 | 3.2 | 0.00 | 0.00 | 0.00 | 81 | 1019.1 |
| 20260502123004 | -1 | 360 | 0.0 | 1.6 | 0.00 | 0.00 | 0.00 | 80 | 1019.1 |
| 20260502122503 | -1 | 360 | 0.0 | 0.0 | 0.00 | 0.00 | 0.00 | 80 | 1019.2 |
| 20260502122003 | -1 | 360 | 0.0 | 0.0 | 0.00 | 0.00 | 0.00 | 79 | 1019.2 |
| 20260502121508 | -1 | 360 | 0.0 | 0.0 | 0.00 | 0.00 | 0.00 | 79 | 1019.1 |
| 20260502121006 | -1 | 360 | 0.0 | 0.0 | 0.00 | 0.00 | 0.00 | 78 | 1019.1 |
| 20260502120501 | -1 | 360 | 0.0 | 0.0 | 0.00 | 0.00 | 0.00 | 78 | 1019.1 |
| 20260502115503 | -2 | 360 | 0.0 | 0.0 | 0.00 | 0.00 | 0.00 | 77 | 1019.1 |
| 20260502115006 | -2 | 360 | 0.0 | 0.0 | 0.00 | 0.00 | 0.00 | 77 | 1019.1 |
| 20260502114507 | -2 | 360 | 0.0 | 0.0 | 0.00 | 0.00 | 0.00 | 77 | 1019.0 |
| 20260502114003 | -2 | 360 | 0.0 | 0.0 | 0.00 | 0.00 | 0.00 | 77 | 1019.0 |
| 20260502113503 | -2 | 360 | 0.0 | 0.0 | 0.00 | 0.00 | 0.00 | 77 | 1019.0 |
| 20260502113007 | -2 | 360 | 0.0 | 0.0 | 0.00 | 0.00 | 0.00 | 76 | 1018.9 |
| 20260502112503 | -2 | 360 | 0.0 | 0.0 | 0.00 | 0.00 | 0.00 | 76 | 1018.9 |
| 20260502112003 | -2 | 360 | 0.0 | 0.0 | 0.00 | 0.00 | 0.00 | 76 | 1018.9 |
| 20260502111504 | -1 | 360 | 0.0 | 0.0 | 0.00 | 0.00 | 0.00 | 76 | 1018.9 |
| 20260502111003 | -1 | 360 | 0.0 | 0.0 | 0.00 | 0.00 | 0.00 | 76 | 1018.9 |
| 20260502110503 | -1 | 360 | 0.0 | 0.0 | 0.00 | 0.00 | 0.00 | 76 | 1018.9 |
| 20260502110009 | -1 | 360 | 0.0 | 0.0 | 0.00 | 0.00 | 0.00 | 76 | 1018.9 |
| 20260502105504 | -1 | 360 | 0.0 | 0.0 | 0.00 | 0.00 | 0.00 | 76 | 1018.9 |
| 20260502105004 | -1 | 360 | 0.0 | 0.0 | 0.00 | 0.00 | 0.00 | 76 | 1018.9 |
| 20260502104513 | -1 | 360 | 0.0 | 0.0 | 0.00 | 0.00 | 0.00 | 75 | 1018.9 |
| 20260502104007 | -1 | 360 | 0.0 | 0.0 | 0.00 | 0.00 | 0.00 | 75 | 1018.9 |
| 20260502103503 | -1 | 360 | 0.0 | 0.0 | 0.00 | 0.00 | 0.00 | 75 | 1018.9 |
| 20260502103011 | -1 | 360 | 0.0 | 0.0 | 0.00 | 0.00 | 0.00 | 75 | 1018.8 |
| 20260502102507 | -1 | 360 | 0.0 | 0.0 | 0.00 | 0.00 | 0.00 | 75 | 1018.8 |
| 20260502102007 | -1 | 360 | 0.0 | 0.0 | 0.00 | 0.00 | 0.00 | 75 | 1018.9 |
| 20260502101510 | -1 | 360 | 0.0 | 0.0 | 0.00 | 0.00 | 0.00 | 75 | 1018.8 |
| 20260502101003 | -1 | 360 | 0.0 | 0.0 | 0.00 | 0.00 | 0.00 | 75 | 1018.9 |
| 20260502100503 | -1 | 360 | 0.0 | 0.0 | 0.00 | 0.00 | 0.00 | 75 | 1018.8 |
| 20260502091515 | -1 | 360 | 0.0 | 0.0 | 0.00 | 0.00 | 0.00 | 74 | 1018.9 |
| 20260502091007 | -1 | 360 | 0.0 | 0.0 | 0.00 | 0.00 | 0.00 | 74 | 1018.9 |
| 20260502090504 | -1 | 360 | 0.0 | 0.0 | 0.00 | 0.00 | 0.00 | 73 | 1018.8 |
| 20260502071511 | 0 | 360 | 0.0 | 0.0 | 0.00 | 0.00 | 0.00 | 70 | 1019.1 |
| 20260502071008 | 0 | 360 | 0.0 | 0.0 | 0.00 | 0.00 | 0.00 | 69 | 1019.1 |
| 20260502070506 | 0 | 360 | 0.0 | 0.0 | 0.00 | 0.00 | 0.00 | 69 | 1019.1 |
| 20260502070022 | 0 | 360 | 0.0 | 0.0 | 0.00 | 0.00 | 0.00 | 69 | 1019.1 |
| 20260502065507 | 0 | 360 | 0.0 | 0.0 | 0.00 | 0.00 | 0.00 | 69 | 1019.1 |
| 20260502065012 | 0 | 360 | 0.0 | 0.0 | 0.00 | 0.00 | 0.00 | 68 | 1019.2 |
| 20260502064529 | 0 | 360 | 0.0 | 0.0 | 0.00 | 0.00 | 0.00 | 68 | 1019.2 |
| 20260502064003 | 0 | 360 | 0.0 | 0.0 | 0.00 | 0.00 | 0.00 | 68 | 1019.2 |
| 20260502063504 | 0 | 360 | 0.0 | 0.0 | 0.00 | 0.00 | 0.00 | 68 | 1019.2 |
| 20260502063010 | 0 | 360 | 0.0 | 0.0 | 0.00 | 0.00 | 0.00 | 67 | 1019.2 |
| 20260502062504 | 0 | 360 | 0.0 | 0.0 | 0.00 | 0.00 | 0.00 | 67 | 1019.2 |
| 20260502062006 | 0 | 360 | 0.0 | 0.0 | 0.00 | 0.00 | 0.00 | 67 | 1019.1 |
| 20260502061509 | 0 | 360 | 0.0 | 0.0 | 0.00 | 0.00 | 0.00 | 66 | 1019.3 |
| 20260502061004 | 1 | 360 | 0.0 | 0.0 | 0.00 | 0.00 | 0.00 | 66 | 1019.3 |
| 20260502060503 | 1 | 360 | 0.0 | 0.0 | 0.00 | 0.00 | 0.00 | 66 | 1019.1 |
| 20260502060014 | 1 | 360 | 0.0 | 0.0 | 0.00 | 0.00 | 0.00 | 65 | 1019.1 |
| 20260502055506 | 1 | 360 | 0.0 | 0.0 | 0.00 | 0.00 | 0.00 | 65 | 1019.0 |
| 20260502055003 | 1 | 360 | 0.0 | 0.0 | 0.00 | 0.00 | 0.00 | 65 | 1019.0 |
| 20260502054514 | 1 | 360 | 0.0 | 0.0 | 0.00 | 0.00 | 0.00 | 64 | 1019.0 |
| 20260502054011 | 1 | 360 | 0.0 | 0.0 | 0.00 | 0.00 | 0.00 | 64 | 1019.0 |
| 20260502053508 | 1 | 360 | 0.0 | 0.0 | 0.00 | 0.00 | 0.00 | 64 | 1019.0 |
| 20260502053010 | 1 | 360 | 0.0 | 0.0 | 0.00 | 0.00 | 0.00 | 64 | 1019.0 |
| 20260502052507 | 1 | 360 | 0.0 | 0.0 | 0.00 | 0.00 | 0.00 | 63 | 1019.0 |
| 20260502052007 | 1 | 360 | 0.0 | 0.0 | 0.00 | 0.00 | 0.00 | 63 | 1019.0 |
| 20260502051507 | 1 | 360 | 0.0 | 0.0 | 0.00 | 0.00 | 0.00 | 62 | 1019.0 |
| 20260502051002 | 2 | 360 | 0.0 | 0.0 | 0.00 | 0.00 | 0.00 | 62 | 1019.0 |
| 20260502050503 | 2 | 360 | 0.0 | 0.0 | 0.00 | 0.00 | 0.00 | 61 | 1018.9 |
| 20260502050011 | 2 | 360 | 0.0 | 0.0 | 0.00 | 0.00 | 0.00 | 61 | 1019.0 |
| 20260502045504 | 2 | 360 | 0.0 | 0.0 | 0.00 | 0.00 | 0.00 | 61 | 1018.9 |
| 20260502045006 | 2 | 360 | 0.0 | 0.0 | 0.00 | 0.00 | 0.00 | 60 | 1018.9 |
| 20260502044514 | 2 | 360 | 0.0 | 0.0 | 0.00 | 0.00 | 0.00 | 60 | 1018.9 |
| 20260502044007 | 2 | 360 | 0.0 | 1.6 | 0.00 | 0.00 | 0.00 | 59 | 1019.0 |
| 20260502043503 | 2 | 360 | 0.0 | 1.6 | 0.00 | 0.00 | 0.00 | 59 | 1019.0 |
| 20260502043022 | 2 | 360 | 0.0 | 0.0 | 0.00 | 0.00 | 0.00 | 58 | 1019.0 |
| 20260502042507 | 3 | 360 | 0.0 | 0.0 | 0.00 | 0.00 | 0.00 | 58 | 1018.9 |
| 20260502042004 | 3 | 360 | 0.0 | 0.0 | 0.00 | 0.00 | 0.00 | 57 | 1019.0 |
| 20260502041517 | 3 | 360 | 0.0 | 0.0 | 0.00 | 0.00 | 0.00 | 56 | 1019.0 |
| 20260502041007 | 3 | 360 | 0.0 | 0.0 | 0.00 | 0.00 | 0.00 | 56 | 1018.9 |
| 20260502040513 | 3 | 360 | 0.0 | 0.0 | 0.00 | 0.00 | 0.00 | 56 | 1018.9 |
| 20260502040013 | 3 | 360 | 0.0 | 0.0 | 0.00 | 0.00 | 0.00 | 55 | 1018.9 |
| 20260502035507 | 3 | 360 | 0.0 | 0.0 | 0.00 | 0.00 | 0.00 | 54 | 1018.9 |
| 20260502035004 | 3 | 360 | 0.0 | 0.0 | 0.00 | 0.00 | 0.00 | 54 | 1018.9 |
| 20260502034511 | 4 | 360 | 0.0 | 0.0 | 0.00 | 0.00 | 0.00 | 54 | 1018.9 |
| 20260502034007 | 4 | 360 | 0.0 | 0.0 | 0.00 | 0.00 | 0.00 | 53 | 1018.9 |
| 20260502033506 | 4 | 360 | 0.0 | 0.0 | 0.00 | 0.00 | 0.00 | 52 | 1019.0 |
| 20260502033019 | 5 | 360 | 0.0 | 0.0 | 0.00 | 0.00 | 0.00 | 51 | 1019.0 |
| 20260502032505 | 5 | 360 | 0.0 | 0.0 | 0.00 | 0.00 | 0.00 | 51 | 1018.9 |
| 20260502032007 | 5 | 360 | 0.0 | 0.0 | 0.00 | 0.00 | 0.00 | 51 | 1019.0 |
| 20260502031520 | 5 | 360 | 0.0 | 0.0 | 0.00 | 0.00 | 0.00 | 51 | 1019.0 |
| 20260502031006 | 5 | 360 | 0.0 | 0.0 | 0.00 | 0.00 | 0.00 | 51 | 1018.9 |
| 20260502030505 | 5 | 360 | 0.0 | 0.0 | 0.00 | 0.00 | 0.00 | 50 | 1018.9 |
| 20260502030022 | 5 | 360 | 0.0 | 0.0 | 0.00 | 0.00 | 0.00 | 49 | 1018.9 |
| 20260502025507 | 6 | 360 | 0.0 | 0.0 | 0.00 | 0.00 | 0.00 | 49 | 1018.9 |
| 20260502025005 | 6 | 360 | 0.0 | 0.0 | 0.00 | 0.00 | 0.00 | 48 | 1018.9 |
| 20260502024519 | 6 | 360 | 0.0 | 0.0 | 0.00 | 0.00 | 0.00 | 47 | 1018.9 |
| 20260502024008 | 6 | 360 | 0.0 | 0.0 | 0.00 | 0.00 | 0.00 | 46 | 1018.8 |
| 20260502023504 | 6 | 360 | 0.0 | 0.0 | 0.00 | 0.00 | 0.00 | 46 | 1018.8 |
| 20260502023014 | 7 | 360 | 0.0 | 0.0 | 0.00 | 0.00 | 0.00 | 46 | 1018.8 |
| 20260502022511 | 7 | 360 | 0.0 | 0.0 | 0.00 | 0.00 | 0.00 | 45 | 1018.8 |
| 20260502022006 | 7 | 360 | 0.0 | 0.0 | 0.00 | 0.00 | 0.00 | 44 | 1018.8 |
| 20260502021518 | 7 | 360 | 0.0 | 0.0 | 0.00 | 0.00 | 0.00 | 43 | 1018.8 |
| 20260502021008 | 7 | 360 | 0.0 | 0.0 | 0.00 | 0.00 | 0.00 | 43 | 1018.8 |
| 20260502020507 | 7 | 360 | 0.0 | 0.0 | 0.00 | 0.00 | 0.00 | 41 | 1018.7 |
| 20260502020024 | 8 | 360 | 0.0 | 0.0 | 0.00 | 0.00 | 0.00 | 41 | 1018.7 |
| 20260502015508 | 8 | 360 | 0.0 | 1.6 | 0.00 | 0.00 | 0.00 | 40 | 1018.6 |
| 20260502015009 | 8 | 360 | 0.0 | 1.6 | 0.00 | 0.00 | 0.00 | 40 | 1018.6 |
| 20260502014528 | 8 | 360 | 0.0 | 1.6 | 0.00 | 0.00 | 0.00 | 40 | 1018.6 |
| 20260502014011 | 8 | 360 | 0.0 | 3.2 | 0.00 | 0.00 | 0.00 | 40 | 1018.6 |
| 20260502013506 | 8 | 360 | 0.0 | 3.2 | 0.00 | 0.00 | 0.00 | 39 | 1018.5 |
| 20260502013022 | 8 | 344 | 0.0 | 3.2 | 0.00 | 0.00 | 0.00 | 40 | 1018.5 |
| 20260502012511 | 8 | 352 | 0.0 | 3.2 | 0.00 | 0.00 | 0.00 | 39 | 1018.4 |
| 20260502012010 | 8 | 5 | 0.0 | 4.8 | 0.00 | 0.00 | 0.00 | 39 | 1018.4 |
| 20260502011536 | 8 | 5 | 0.0 | 8.0 | 0.00 | 0.00 | 0.00 | 39 | 1018.4 |
| 20260502011007 | 9 | 26 | 0.0 | 8.0 | 0.00 | 0.00 | 0.00 | 38 | 1018.3 |
| 20260502010504 | 9 | 352 | 0.0 | 6.4 | 0.00 | 0.00 | 0.00 | 38 | 1018.3 |
| 20260502010019 | 9 | 11 | 1.6 | 6.4 | 0.00 | 0.00 | 0.00 | 38 | 1018.3 |
| 20260502005507 | 9 | 12 | 0.0 | 8.0 | 0.00 | 0.00 | 0.00 | 38 | 1018.3 |
| 20260502005007 | 9 | 5 | 0.0 | 9.7 | 0.00 | 0.00 | 0.00 | 37 | 1018.2 |
| 20260502004526 | 9 | 25 | 4.8 | 11.3 | 0.00 | 0.00 | 0.00 | 36 | 1018.2 |
| 20260502004007 | 9 | 351 | 1.6 | 11.3 | 0.00 | 0.00 | 0.00 | 36 | 1018.0 |
| 20260502003509 | 9 | 27 | 3.2 | 11.3 | 0.00 | 0.00 | 0.00 | 36 | 1018.0 |
| 20260502003028 | 9 | 21 | 1.6 | 9.7 | 0.00 | 0.00 | 0.00 | 36 | 1018.0 |
| 20260502002511 | 9 | 351 | 3.2 | 12.9 | 0.00 | 0.00 | 0.00 | 37 | 1018.0 |
| 20260502002010 | 9 | 343 | 1.6 | 12.9 | 0.00 | 0.00 | 0.00 | 36 | 1018.0 |
| 20260502001528 | 9 | 310 | 3.2 | 8.0 | 0.00 | 0.00 | 0.00 | 36 | 1017.9 |
| 20260502001010 | 9 | 5 | 1.6 | 8.0 | 0.00 | 0.00 | 0.00 | 37 | 1017.9 |
| 20260502000510 | 10 | 352 | 0.0 | 4.8 | 0.00 | 0.00 | 0.00 | 36 | 1017.9 |
| 20260502000016 | 10 | 5 | 1.6 | 4.8 | 0.00 | 0.00 | 0.00 | 37 | 1017.9 |
| 20260501235509 | 10 | 15 | 0.0 | 8.0 | 0.00 | 0.00 | 0.00 | 37 | 1017.9 |
| 20260501235007 | 10 | 360 | 1.6 | 8.0 | 0.00 | 0.00 | 0.00 | 35 | 1017.9 |
| 20260501234521 | 10 | 335 | 1.6 | 14.5 | 0.00 | 0.00 | 0.00 | 35 | 1017.8 |
| 20260501234008 | 10 | 360 | 1.6 | 14.5 | 0.00 | 0.00 | 0.00 | 34 | 1017.8 |
| 20260501233507 | 10 | 17 | 4.8 | 14.5 | 0.00 | 0.00 | 0.00 | 34 | 1017.8 |
| 20260501233020 | 10 | 33 | 3.2 | 14.5 | 0.00 | 0.00 | 0.00 | 33 | 1017.8 |
| 20260501232513 | 11 | 26 | 1.6 | 9.7 | 0.00 | 0.00 | 0.00 | 34 | 1017.8 |
| 20260501232009 | 11 | 352 | 4.8 | 12.9 | 0.00 | 0.00 | 0.00 | 34 | 1017.8 |
| 20260501231532 | 11 | 5 | 1.6 | 12.9 | 0.00 | 0.00 | 0.00 | 35 | 1017.8 |
| 20260501231003 | 11 | 313 | 1.6 | 11.3 | 0.00 | 0.00 | 0.00 | 34 | 1017.7 |
| 20260501230509 | 11 | 348 | 3.2 | 11.3 | 0.00 | 0.00 | 0.00 | 35 | 1017.7 |
| 20260501230014 | 11 | 336 | 1.6 | 8.0 | 0.00 | 0.00 | 0.00 | 34 | 1017.7 |
| 20260501225505 | 11 | 313 | 1.6 | 14.5 | 0.00 | 0.00 | 0.00 | 33 | 1017.7 |